Torna al catalogo

FENGYUN 1C DEB

AttivoPO
NORAD 30623·DEBRIS·🇨🇳 China

Lanciato May 10, 1999 da Taiyuan Satellite Launch Center

Loading…

Prossimi Passaggi (prossime 24 ore)

TLE

AggiornatoSource: Space-Track

Epoca: Sep 14, 2026, 09:18 UTC

1 30623U 99025ANE 26257.38797479  .00000236  00000-0  36930-3 0  9990
2 30623  98.8559  42.3245 0404598 147.2419 243.1347 13.29574607948793

Traccia FENGYUN 1C DEB in tempo reale con AllMySat

Download on the App Store